Location: Proctor
(47.8934°N, 114.3048°W)
Time: 11:09:13
(UTC+00:00)

Transit 4A - Pass Details

Date: 30 June 2024
Orbit: 870 x 973 km, 66.8° (Epoch: 13 July)

Event Time Altitude Azimuth Distance (km) Brightness Sun altitude
Rises 06:05:20 0° 255° (WSW) 3,456 11.0 -15.8°
Reaches altitude 10° 06:08:13 10° 267° (W) 2,518 10.4 -16.0°
Maximum altitude 06:13:03 27° 324° (NW) 1,637 10.0 -16.3°
Drops below altitude 10° 06:17:56 10° 21° (NNE) 2,541 10.9 -16.6°
Sets 06:20:52 0° 34° (NNE) 3,493 11.5 -16.7°
